Regional Weather Roundup
Issued by NWS

Home | Current Version | Previous Version | Graphics & Text | Print | Product List | Glossary On
Versions: 1 2 3 4 5 6 7 8 9 10 11 12 13 14 15 16 17 18 19 20 21 22 23 24 25 26 27 28 29 30 31 32 33 34 35 36 37 38 39 40 41 42 43 44 45 46 47 48 49 50
000
ASUS43 KBIS 290310
RWRND

NORTH DAKOTA REGIONAL WEATHER ROUNDUP
NATIONAL WEATHER SERVICE BISMARCK ND
1000 PM CDT FRI AUG 28 2015

NOTE: "FAIR" INDICATES FEW OR NO CLOUDS BELOW 12,000 FEET WITH NO
SIGNIFICANT WEATHER AND/OR OBSTRUCTIONS TO VISIBILITY.


NDZ001>003-009>011-017-290400-
NORTHWEST NORTH DAKOTA

CITY           SKY/WX    TMP DP  RH WIND       PRES   REMARKS
WILLISTON      CLOUDY    69  48  47 CALM      29.91R HAZE
MINOT          MOCLDY    71  61  70 E3        29.88R
MINOT AFB      MOCLDY    69  64  83 E6        29.87R
$$

NDZ018>021-031>035-040>046-290400-
SOUTHWEST NORTH DAKOTA

CITY           SKY/WX    TMP DP  RH WIND       PRES   REMARKS
BISMARCK       PTCLDY    71  65  81 SE3       29.91R
DICKINSON      PTCLDY    66  51  58 W10       29.96R
GARRISON         N/A     71  30  21 CALM      29.90R
HETTINGER ARPT CLOUDY    63  54  72 CALM      30.00R HAZE
$$

NDZ004>008-012>016-024-026-027-054-290400-
NORTHEAST NORTH DAKOTA

CITY           SKY/WX    TMP DP  RH WIND       PRES   REMARKS
GRAND FORKS    PTCLDY    70  67  90 S9        29.86R
GRND FRKS AFB  CLEAR     71  68  90 S8        29.87R
DEVILS LAKE    CLEAR     66  59  77 CALM      29.88R
$$

NDZ022-023-025-028>030-036>039-047>053-290400-
SOUTHEAST NORTH DAKOTA

CITY           SKY/WX    TMP DP  RH WIND       PRES   REMARKS
FARGO          CLEAR     74  64  71 S15       29.92R
JAMESTOWN      CLEAR     71  66  84 S9        29.91R
$$




USA.gov is the U.S. government's official web portal to all federal, state and local government web resources and services.